This demonstration page uses our WeatherBlox Daily Observations layout. Learn more.

Left ArrowRight Arrow

44.89941, -97.11507

Hourly Observations for June 14, 2016

Temp ( °F °C ) Dew Point ( °F °C ) Humidity (%) Winds ( mph kmh ) Pressure ( in mb ) Visibility ( mi km ) Precip ( " mm )
12:53 am 00:53 Clear 69 20.6 63 17.2 81 81 E 8 13 29.84 1011 10 16 0.00 0.00
1:53 am 01:53 Clear 68 20 62 16.7 81 81 E 7 11 29.83 1010 10 16 0.00 0.00
2:53 am 02:53 Mostly Clear 67 19.4 63 17.2 87 87 E 7 11 29.81 1010 10 16 0.00 0.00
3:02 am 03:02 Partly Cloudy 67 19.4 63 17.2 87 87 E 6 9 29.77 1008 10 16 0.00 0.00
3:05 am 03:05 Mostly Cloudy 67 19.4 63 17.2 87 87 E 7 11 29.77 1008 10 16 0.00 0.00
3:53 am 03:53 Cloudy 67 19.4 63 17.2 87 87 ESE 7 11 29.78 1009 8 13 0.00 0.00
4:23 am 04:23 Partly Cloudy 67 19.4 63 17.2 87 87 ESE 8 13 29.74 1007 9 14 0.00 0.00
4:53 am 04:53 Clear 66 18.9 62 16.7 87 87 E 9 15 29.75 1008 9 14 0.00 0.00
5:02 am 05:02 Partly Cloudy 66 18.9 63 17.2 90 90 E 9 15 29.74 1007 9 14 0.00 0.00
5:11 am 05:11 Mostly Cloudy 66 18.9 63 17.2 90 90 E 10 17 29.74 1007 8 13 0.00 0.00
5:36 am 05:36 Cloudy with Mist and Fog 65 18.3 64 17.8 97 97 E 12 19 29.77 1008 3 4 0.00 0.00
5:43 am 05:43 Cloudy with Mist and Fog 65 18.3 63 17.2 93 93 ESE 9 15 29.77 1008 1 2 0.00 0.00
5:53 am 05:53 Cloudy with Mist and Fog 65 18.3 63 17.2 93 93 E 9 15 29.77 1008 1 2 0.00 0.00
6:53 am 06:53 Cloudy with Mist and Fog 64 17.8 63 17.2 96 96 E 9 15 29.76 1008 1 2 0.00 0.00
7:02 am 07:02 Cloudy with Mist and Fog 64 17.8 63 17.2 96 96 E 13 20 29.74 1007 2 3 0.00 0.00
7:12 am 07:12 Cloudy with Mist and Fog 64 17.8 63 17.2 96 96 E 10 17 29.74 1007 4 6 0.00 0.00
7:42 am 07:42 Cloudy with Mist and Fog 64 17.8 62 16.7 93 93 E 13 20 29.74 1007 3 4 0.00 0.00
7:53 am 07:53 Cloudy with Mist and Fog 64 17.8 62 16.7 93 93 E 10 17 29.72 1007 1 2 0.00 0.00
8:10 am 08:10 Cloudy with Thunderstorms 63 17.2 62 16.7 97 97 E 9 15 29.74 1007 1 2 0.00 0.03
8:39 am 08:39 Cloudy with Strong Thunderstorms 63 17.2 62 16.7 97 97 E 7 11 29.74 1007 2 2 0.17 4.32
8:47 am 08:47 Cloudy with Rain 64 18 63 17 94 94 E 10 17 29.71 1006 2 3 0.21 5.33
8:53 am 08:53 Cloudy with Rain 64 17.8 62 16.7 93 93 E 10 17 29.71 1006 3 4 0.23 5.84
9:04 am 09:04 Cloudy with Light Rain 64 17.8 62 16.7 93 93 VRB 6 9 29.71 1006 3 5 0.02 0.51
9:32 am 09:32 Cloudy 65 18.3 62 16.7 90 90 E 8 13 29.68 1005 10 16 0.02 0.51
9:53 am 09:53 Cloudy 65 18.3 63 17.2 93 93 E 8 13 29.70 1006 10 16 0.02 0.51
10:53 am 10:53 Cloudy 67 19.4 63 17.2 87 87 ESE 14 22 29.67 1005 10 16 0.00 0.00
11:14 am 11:14 Cloudy 69 20.6 64 17.8 84 84 ESE 15 24 29.65 1004 10 16 0.00 0.00
11:53 am 11:53 Cloudy 71 21.7 65 18.3 81 81 ESE 15 24 29.65 1004 10 16 0.00 0.00
12:35 pm 12:35 Mostly Cloudy 75 23.9 67 19.4 76 76 SE 15 24 29.56 1001 10 16 0.00 0.00
12:53 pm 12:53 Mostly Cloudy 75 23.9 67 19.4 76 76 SE 14 22 29.62 1003 10 16 0.00 0.00
1:50 pm 13:50 Mostly Cloudy 79 26 66 19 65 65 SSE 17 28 29.53 1000 10 16 0.00 0.00
1:53 pm 13:53 Mostly Cloudy 79 26.1 67 19.4 67 67 SSE 21 33 29.59 1002 10 16 0.00 0.00
2:53 pm 14:53 Cloudy 77 25 67 19.4 71 71 S 18 30 29.57 1002 10 16 0.00 0.00
3:53 pm 15:53 Cloudy 77 25 64 17.8 64 64 S 16 26 29.58 1002 10 16 0.00 0.00
4:26 pm 16:26 Cloudy 75 23.9 65 18.3 71 71 WSW 15 24 29.50 999 10 16 0.00 0.00
4:53 pm 16:53 Mostly Sunny 78 25.6 65 18.3 64 64 SW 17 28 29.57 1001 10 16 0.00 0.00
5:53 pm 17:53 Sunny 76 24.4 60 15.6 58 58 SW 18 30 29.56 1001 10 16 0.00 0.00
6:53 pm 18:53 Sunny 74 23.3 61 16.1 64 64 SW 16 26 29.57 1001 10 16 0.00 0.00
7:53 pm 19:53 Sunny 71 21.7 60 15.6 68 68 W 18 30 29.60 1002 10 16 0.00 0.00
8:53 pm 20:53 Sunny 67 19.4 59 15 76 76 WSW 16 26 29.62 1003 10 16 0.00 0.00
9:53 pm 21:53 Clear 65 18.3 59 15 81 81 W 10 17 29.64 1004 10 16 0.00 0.00
10:53 pm 22:53 Clear 63 17.2 58 14.4 84 84 W 12 19 29.65 1004 10 16 0.00 0.00
11:53 pm 23:53 Mostly Clear 62 16.7 58 14.4 86 86 W 14 22 29.65 1004 10 16 0.00 0.00

Powered by AerisWeather